Hourly Data Report for September 19, 2017

All times are specified in Local Standard Time (LST). Add 1 hour to adjust for Daylight Saving Time where and when it is observed.

WINNIPEG A CS
MANITOBA

49°55'00.000" N
97°14'58.000" W
238.70 m
502S001
71849
XWG

Download Data

Hourly Data (September 2017)
Hourly Data Report for September 19, 2017
Temp Definition
°C
Dew Point Temp Definition
°C
Rel Hum Definition
%
Wind Dir Definition
10's deg

Wind Spd Definition
km/h
Visibility Definition
km
Stn Press Definition
kPa
Hmdx Definition


Wind Chill Definition


Weather Definition


TIME
00:00 12.8 10.4 85 14 12   98.21     LegendNANA
01:00 12.7 10.5 87 14 13   98.17     LegendNANA
02:00 13.4 11.4 88 14 13   98.18     LegendNANA
03:00 12.8 11.3 91 13 13   98.14     LegendNANA
04:00 13.4 12.1 92 13 14   98.13     LegendNANA
05:00 13.8 12.2 90 12 20   98.05     LegendNANA
06:00 13.6 11.9 89 12 22   98.07     LegendNANA
07:00 13.8 12.2 90 12 17   98.02     LegendNANA
08:00 14.3 12.6 90 12 23   97.95     LegendNANA
09:00 15.1 12.9 86 12 23   97.88     LegendNANA
10:00 15.2 12.9 86 12 27   97.85     LegendNANA
11:00 15.9 13.1 83 12 26   97.78     LegendNANA
12:00 16.4 13.1 81 12 30   97.63     LegendNANA
13:00 18.5 14.1 75 13 34   97.51     LegendNANA
14:00 19.4 14.3 72 14 26   97.46     LegendNANA
15:00 19.1 13.7 71 11 30   97.31     LegendNANA
16:00 18.6 13.9 74 11 27   97.27     LegendNANA
17:00 18.4 14.2 77 11 27   97.15     LegendNANA
18:00 18.8 14.7 77 12 23   97.14     LegendNANA
19:00 18.6 15.4 82 11 26   97.03     LegendNANA
20:00 18.5 15.6 83 12 31   96.84     LegendNANA
21:00 18.7 15.8 84 13 17   96.87     LegendNANA
22:00 17.6 15.5 88 27 11   96.98     LegendNANA
23:00 17.0 15.9 93 4 11   96.96     LegendNANA

Notes on Data Quality.

Legend

  • E = Estimated
  • M = Missing
  • NA = Not Available
  • ‡ = Partner data that is not subject to review by the National Climate Archives
Date modified: